sat.trackr.live / text

‹ back to catalog

HAWK-8C

NORAD 59449 · 2024-066H

PAYLOAD ACTIVE UNKNOWN

§ Identity

Operator
Country
US
Launch date
2024-04-07
Launch site
AFETR
Launch vehicle
Mass (kg)
RCS (m²)

External: N2YO · Heavens-Above · Gunter

§ Orbital elements

Epoch: 2026-05-25T01:17:11.369184Z

Period
96.06 min
Inclination
45.6093°
Eccentricity
0.0003444
Mean motion
14.99022004 rev/d
Perigee alt
567.5 km
Apogee alt
572.3 km
Semi-major
6,948.1 km
B*
1.0229e-4
RAAN
37.1704°
Arg perigee
294.2132°
Mean anomaly
65.8389°
Rev number
11,635

§ Raw data

HAWK-8C1 59449U 24066H   26145.05360381  .00001028  00000+0  10229-3 0  99902 59449  45.6093  37.1704 0003444 294.2132  65.8389 14.99022004116356

JSON: /api/v1/satellites/59449 · /tle

For live sub-satellite position, see the globe view (requires WebGL).

§ Visibility from observer

Set your observer location to see the next 7 days of passes ≥ 10°. The values pass through the URL so the page stays shareable.

No JS? Fill the form by hand. The geolocation button needs JavaScript.